Location: Casa Rossa
(45.2389°N, 12.2056°E)
Time: 04:02:00
(UTC+00:00)

CZ-2C R/B - Pass Details

Date: 14 July 2020
Orbit: 503 x 567 km, 97.7° (Epoch: 11 August)

Event Time Altitude Azimuth Distance (km) Brightness Sun altitude
Rises 02:11:20 0° 19° (NNE) 2,777 7.8 -12.3°
Reaches altitude 10° 02:13:35 10° 27° (NNE) 1,875 6.9 -12.0°
Maximum altitude 02:17:27 41° 98° (E) 835 4.0 -11.6°
Drops below altitude 10° 02:21:14 10° 169° (S) 1,848 5.2 -11.1°
Enters shadow 02:22:23 - 174° (S) 2,303 5.6 -11.0°
